User: anonymous   Login
Location: Unspecified
(0.0000°N, 0.0000°E)
Time: 06:09:40
(UTC+00:00)
Language:

USA 158 - Orbit

View from above orbital plane
View from above orbital plane
View from above satellite
View from above satellite

Ground track
Ground track

The orbit data is extracted from the following two-line orbital elements,

1 26770U 01020A   17262.29613871 0.00000000  00000-0  00000-0 0    03
2 26770   6.4523  46.7294 0014640  41.5290 318.5647  0.98839044    01
Epoch (UTC): 19 September 2017 07:06:26
Eccentricity: 0.0014640
inclination: 6.4523°
perigee height: 36130 km
apogee height: 36255 km
right ascension of ascending node: 46.7294°
argument of perigee: 41.5290°
revolutions per day: 0.98839044
mean anomaly at epoch: 318.5647°
orbit number at epoch: 0

The dashed part of the orbit path shows where the satellite is in the earth's shadow,  

DLR